Location: Sternwarte auf dem Internationalen Platz Vogelsang IP
(50.5721°N, 6.4398°E)
Time: 12:06:56
(UTC+01:00)

ACS3 Solar Sail - Pass Details

Date: 17 November 2025
Orbit: 888 x 1003 km, 97.3° (Epoch: 07 December)

Event Time Altitude Azimuth Distance (km) Brightness Sun altitude
Rises 05:33:54 0° 5° (N) 3,557 4.8 -21.7°
Reaches altitude 10° 05:36:42 10° 353° (N) 2,628 3.9 -21.3°
Enters shadow 05:39:27 21° 328° (NNW) 1,964 3.1 -20.8°
